SCP
0 0 -0 0 0 0 0 0 0 0 -0 -0 0 0 0 0 0 0 0 0 0 -0 -0 0 3 4 3 2 1 0 0 0 0 0 0 0 0 0 0 -0 -0 0 0 0
-0 0 0 0 0 -0 0 0 0 -0 0 0 -0 0 0 0 -0 0 0 0 -0 -1 1 2 3 3 2 0 0 0 0 0 0 0 0 0 0 0 -0 -0 0 0 0 0
0 0 0 0 0 0 0 0 0 0 0 0 0 0 -0 -0 -0 0 0 0 1 1 1 1 1 0 0 0 0 0 0 0 0 0 0 0 0 0 -0 -0 0 0 0 0
0 0 -0 0 0 -0 0 -0 0 -0 -0 0 -0 -0 -0 -0 0 0 0 0 1 2 1 0 0 0 0 0 0 0 0 0 0 0 0 0 0 -0 -0 -0 0 0 0 0
0 0 0 0 -0 0 -0 0 0 0 0 0 -0 -0 -0 -0 -0 0 -0 0 1 0 0 0 0 0 0 0 0 0 0 0 0 0 0 0 0 -0 -0 0 0 0 0 0
-0 0 0 -0 0 -0 0 0 0 0 -0 0 -0 0 -0 -0 0 0 0 0 0 0 0 0 0 0 0 0 0 0 0 0 0 0 0 0 -0 -0 0 0 0 0 0 0
-0 0 0 0 0 -0 0 0 -0 -0 -0 -0 0 0 0 0 0 -0 -0 0 0 0 0 0 0 0 -0 -0 -0 0 0 0 0 0 0 0 0 0 0 0 0 0 0 0
-0 0 0 0 -0 0 0 0 -0 -0 -0 0 0 0 0 -0 0 0 0 0 0 0 0 0 0 0 0 0 0 0 0 0 0 0 0 0 0 0 0 0 -0 0 0 0
0 0 0 0 0 0 -0 -0 -0 -0 0 0 0 0 0 0 0 0 0 0 0 0 0 0 0 0 0 0 0 0 0 0 0 0 0 0 0 0 0 -0 -0 0 0 0
0 -0 -0 -0 0 -0 -0 -0 -0 0 0 0 0 0 0 0 0 0 0 0 0 0 0 0 0 0 0 0 0 0 0 0 0 0 0 0 0 -0 -0 -0 -0 -0 -0 0
-0 -0 0 0 -0 -0 -0 0 -0 -0 0 0 0 0 0 0 0 0 0 0 0 0 0 0 0 0 0 0 0 0 0 0 0 0 0 -0 -0 -0 -0 -0 -0 -0 0 0
0 -0 0 -0 -0 -0 -0 0 0 0 0 0 0 0 0 0 0 0 0 0 0 0 0 0 0 0 0 0 0 0 0 0 0 0 -0 -0 -0 -0 -0 -0 -0 -0 0 0
0 -0 -0 -0 -0 -0 -0 0 0 0 0 0 0 0 0 0 0 0 0 0 0 0 0 0 0 0 0 0 0 0 0 0 0 -0 -0 -0 -0 -0 -0 -0 -0 -0 -0 0
-0 -0 0 0 0 0 0 0 0 0 0 0 0 0 0 0 0 0 0 0 0 0 0 0 0 0 0 0 0 0 -0 -0 -0 -0 -0 -0 -0 -0 -0 -0 -0 0 0 0
0 0 0 0 0 0 0 0 0 0 0 0 0 0 0 0 0 0 0 0 0 0 0 0 0 0 0 0 0 0 -0 0 -0 -0 -0 -0 -0 -0 -0 -0 0 0 0 0
0 0 0 0 0 0 0 0 0 0 0 0 0 0 0 0 0 0 0 0 0 0 0 0 0 0 0 -0 -0 -0 -0 -0 -0 -0 -0 -0 -0 -0 0 0 0 0 -0 -0
0 0 0 0 0 0 0 0 0 0 0 0 0 0 0 0 0 0 0 0 0 0 0 0 0 0 0 -0 -0 -0 -0 -0 -0 -0 -0 -0 -0 -0 0 0 0 -0 -0 -0
0 0 0 0 0 0 0 0 0 0 0 0 0 0 0 0 0 0 0 0 0 0 0 0 0 0 0 -0 -0 -0 -0 -0 -0 -0 -0 -0 -0 -0 0 0 -0 -0 -0 -0
0 0 0 0 0 0 0 0 0 0 0 0 0 0 0 0 0 0 0 0 0 0 0 0 0 -0 -0 -0 -0 -0 -0 -0 -0 -0 -0 -0 -0 0 -0 -0 -0 0 -0 -0
0 0 0 0 0 0 0 0 0 0 0 0 0 0 0 0 0 0 0 0 0 0 0 0 -0 -0 0 -0 -0 0 -0 -0 0 0 0 0 0 -0 -0 -0 0 0 0 0
0 0 0 0 0 0 0 0 0 0 0 0 0 0 0 0 0 0 0 0 0 0 0 0 0 0 0 0 -0 -0 0 -0 -0 -0 -0 -0 0 -0 -0 -0 -0 -0 0 0
0 0 0 0 0 0 0 0 0 0 0 0 0 0 0 0 0 0 0 0 0 0 0 0 0 0 0 -0 0 0 0 0 0 -0 -0 0 -0 -0 0 -0 -0 0 0 0
0 0 0 0 0 0 0 0 0 0 0 0 0 0 0 0 0 0 0 0 0 0 0 0 0 0 0 0 0 0 0 0 0 0 0 0 0 0 0 -0 -0 0 0 0
0 0 0 0 0 0 0 0 0 0 0 0 0 0 0 0 0 0 0 0 0 0 0 0 0 0 0 0 0 0 0 0 0 0 0 0 0 -0 -0 -0 0 0 0 0
0 0 0 0 0 0 0 0 0 0 0 0 0 0 0 0 0 0 0 0 0 0 0 0 0 0 0 0 0 0 0 0 0 0 0 0 0 -0 -0 -0 -0 -0 -0 -0
0 0 0 0 0 0 0 0 0 0 0 0 0 0 0 0 0 0 0 0 0 0 0 0 0 0 0 0 0 0 0 0 0 0 0 0 0 -0 -0 -0 -0 -0 -0 -0
0 0 0 0 0 0 0 0 0 0 0 0 0 0 0 0 0 0 0 0 0 0 0 0 0 0 0 0 0 0 0 0 0 0 0 0 -0 -0 -0 -0 -0 -0 -0 -0
Wind_Speed_500mb
32 38 40 40 40 40 30 34 26 35 26 27 30 32 14 19 21 43 29 17 38 52 52 45 76 75 75 77 83 93 101 103 100 91 96 89 83 76 73 59 46 44 41 38
24 32 29 30 21 29 13 30 36 40 35 17 30 24 11 16 21 31 38 47 42 37 42 61 66 71 74 82 88 98 108 106 101 104 93 77 77 74 62 53 50 43 41 40
11 18 29 6 14 20 26 24 13 10 7 12 17 21 12 30 40 43 42 39 19 43 67 69 76 76 83 98 107 112 112 111 111 100 91 84 77 67 62 59 54 52 48 40
9 17 6 9 20 19 28 35 23 24 27 25 30 44 50 26 31 45 15 26 38 75 84 88 99 103 93 94 108 118 120 114 111 89 89 82 73 67 69 65 58 51 46 39
5 6 13 7 13 25 14 17 6 31 35 30 48 43 15 22 19 12 26 16 62 94 113 115 130 126 107 105 112 118 113 93 84 100 93 81 77 77 71 66 60 51 45 39
5 8 7 8 33 48 21 10 32 44 41 36 29 10 9 29 18 15 17 17 59 109 126 129 125 106 106 102 99 87 83 92 95 95 84 80 82 77 72 64 59 54 49 41
8 7 3 16 39 55 5 13 59 66 65 50 10 13 33 27 17 14 5 69 100 120 128 125 125 130 121 113 97 103 99 93 84 80 83 84 77 71 67 62 58 52 47 43
6 7 9 31 13 8 20 58 65 64 51 35 6 18 18 22 28 38 80 115 108 111 125 128 126 133 128 114 106 98 95 91 86 83 79 77 79 73 63 57 54 53 50 48
8 10 9 23 22 40 48 55 41 50 41 19 6 8 12 29 55 55 78 104 104 111 126 104 112 119 113 106 104 105 100 98 94 90 85 79 75 68 61 57 57 56 51 52
8 1 9 33 26 46 53 61 42 34 29 18 19 26 61 66 72 65 82 107 111 115 115 105 101 102 99 102 104 103 104 99 95 94 88 79 70 60 55 54 56 55 53 52
15 19 28 7 47 55 54 45 32 23 27 24 38 50 76 79 76 61 85 112 105 111 113 110 116 114 108 102 101 104 99 99 95 88 77 73 66 56 54 53 46 53 51 45
7 16 13 30 46 45 48 38 24 27 37 39 56 64 84 91 82 77 85 113 102 109 112 108 111 107 102 100 99 104 109 101 93 89 86 77 72 75 63 59 52 47 45 40
11 34 43 47 39 29 26 29 17 27 41 52 58 73 90 88 80 91 86 87 102 105 104 100 101 102 98 97 98 102 103 98 93 86 80 79 75 76 80 64 54 50 43 37
19 25 18 16 21 26 14 13 12 27 48 61 70 77 91 86 81 94 91 100 101 101 98 96 97 99 96 95 95 97 96 90 84 80 78 76 74 74 72 70 66 57 43 36
14 11 13 21 13 12 16 22 20 40 53 65 67 77 87 84 85 92 93 97 97 97 96 91 91 92 88 87 87 87 85 84 84 85 82 79 75 71 67 63 59 54 50 45
9 9 6 3 8 12 12 29 27 45 58 63 68 76 82 87 88 76 89 92 98 97 96 95 92 88 84 86 89 90 89 87 85 84 79 75 73 71 66 59 54 51 47 42
5 7 9 8 6 12 15 19 39 49 58 67 74 77 81 84 86 87 84 88 91 92 92 93 97 98 99 98 96 92 87 81 76 76 73 70 65 67 62 55 53 51 48 43
4 5 6 8 15 23 21 29 40 43 58 70 72 78 82 83 88 85 87 91 98 98 95 95 95 91 86 82 82 81 78 73 69 68 67 68 66 59 54 52 52 52 50 44
7 10 11 13 16 32 33 38 49 49 58 63 71 75 79 81 82 84 87 88 86 84 80 77 79 82 82 80 80 78 75 77 80 79 76 71 65 58 54 51 49 44 43 45
14 12 14 15 17 30 36 42 52 58 63 69 74 78 80 76 78 83 81 84 82 87 80 79 82 80 76 71 72 75 78 78 78 76 71 64 57 52 48 50 47 46 43 41
19 16 22 23 32 35 36 43 56 61 60 69 75 76 78 78 75 76 81 80 69 75 83 77 75 76 72 66 68 74 72 70 68 64 59 55 51 49 48 45 46 45 45 40
23 33 30 37 37 47 51 52 56 60 64 66 67 74 77 75 75 80 73 69 68 63 60 60 62 61 59 62 65 63 63 62 61 57 55 52 50 47 44 43 43 41 39 36
34 36 34 39 40 42 52 58 57 62 68 67 70 71 76 76 72 75 72 58 52 54 54 54 55 56 61 64 61 58 56 57 54 49 46 43 42 40 39 39 39 35 33 30
33 40 41 42 46 45 49 50 47 47 45 53 60 60 65 65 56 66 69 62 52 52 52 54 54 57 54 53 56 59 56 50 46 44 42 42 42 39 38 39 38 36 31 27
33 44 42 46 48 46 50 56 53 44 46 47 46 43 47 51 64 62 69 44 48 48 52 46 42 39 48 53 53 51 48 46 44 41 39 37 38 38 39 37 36 33 30 27
40 49 44 48 47 49 46 45 57 54 47 46 38 45 50 63 61 55 53 46 52 57 48 44 43 45 45 44 45 44 44 43 39 38 39 39 36 35 36 34 32 32 31 30
41 45 45 51 40 41 43 50 49 43 41 45 42 41 57 77 57 47 54 53 61 53 45 41 42 41 39 39 40 41 39 38 38 40 38 36 34 34 34 33 33 33 33 33
Wind_Direction_500mb
254 269 275 274 279 289 252 252 255 270 272 278 286 280 251 254 276 294 271 273 253 283 268 225 210 191 183 189 192 182 177 174 172 166 156 154 154 152 151 148 147 148 140 131
274 263 271 288 287 299 299 252 253 258 268 340 287 283 232 296 285 298 331 318 312 286 194 192 192 178 176 176 173 179 177 168 162 152 151 154 155 154 143 146 149 145 139 136
272 331 307 186 359 327 317 305 328 304 359 328 327 325 321 318 333 316 313 309 273 167 163 169 168 162 156 150 149 154 152 153 151 148 149 154 154 144 145 146 144 140 136 133
290 310 345 157 36 335 311 286 360 357 345 332 321 310 305 292 294 282 271 264 164 126 132 142 136 133 141 153 139 147 134 135 140 137 151 152 148 145 143 139 139 135 131 129
275 271 272 164 18 334 338 302 1 343 328 312 310 318 293 256 267 229 198 175 133 128 128 127 124 134 128 122 127 127 131 131 142 154 152 147 147 143 140 137 134 133 129 131
293 270 276 16 335 322 302 258 0 334 316 300 305 325 260 330 274 214 217 178 133 124 126 125 129 130 124 125 113 119 132 145 153 153 147 148 145 140 136 133 131 129 128 123
285 278 252 6 338 320 3 322 324 314 305 305 244 238 301 304 297 171 38 142 128 124 127 130 133 139 137 138 135 148 149 151 154 148 147 147 139 135 135 132 129 126 123 117
318 280 295 14 355 24 303 300 302 304 315 331 318 264 281 239 122 129 133 133 129 128 129 134 136 137 138 142 146 145 149 148 144 143 141 139 136 133 128 125 124 123 118 110
206 243 317 328 309 323 320 311 320 314 331 353 35 358 94 92 106 129 126 127 127 127 132 136 141 142 138 139 146 147 145 144 144 140 137 136 132 127 123 124 121 116 113 107
318 298 317 315 328 335 332 323 328 328 346 25 58 83 100 102 104 114 119 124 129 131 129 128 141 147 144 145 149 146 143 140 138 138 138 135 126 120 120 121 116 113 112 111
265 289 325 177 329 336 333 345 344 2 37 79 85 86 100 101 103 112 112 121 118 115 118 125 141 143 150 151 150 144 139 137 139 136 135 131 126 119 115 110 112 114 112 102
274 325 285 288 319 335 336 346 352 32 66 101 105 100 113 105 111 106 107 122 118 130 134 138 143 141 144 149 148 143 140 142 142 143 142 139 130 121 114 114 114 105 104 97
270 299 296 299 313 337 335 348 25 65 81 94 102 106 113 120 117 118 113 122 130 137 138 139 139 141 145 147 147 145 142 142 140 142 142 136 131 125 119 110 104 100 97 96
304 309 304 326 322 334 12 40 59 90 97 102 113 104 109 117 118 123 125 133 137 139 138 141 142 142 146 147 146 143 142 143 142 139 135 132 127 123 120 116 112 105 102 105
327 321 312 314 328 350 15 93 81 87 99 102 111 107 117 115 113 118 127 134 138 138 138 142 141 141 145 146 144 142 141 138 134 131 128 125 123 120 117 117 114 107 102 93
343 340 4 159 353 34 45 89 103 94 107 112 116 113 111 116 116 115 129 135 136 136 138 139 140 142 145 145 142 140 137 135 133 131 129 127 126 126 125 121 112 101 92 91
347 350 112 118 82 70 85 96 116 111 115 118 116 120 118 116 117 119 120 127 130 133 137 138 139 142 142 141 140 138 137 137 134 133 132 129 128 129 128 116 107 102 100 93
247 187 199 171 134 116 115 117 125 124 118 124 124 122 120 117 119 124 126 129 130 131 135 137 138 139 140 143 140 137 134 135 135 134 133 132 129 124 120 114 112 105 98 94
135 145 161 174 143 128 124 122 127 135 125 127 127 122 122 123 127 127 128 131 134 134 138 140 142 141 143 145 143 140 138 135 132 128 126 125 125 121 114 110 109 107 104 95
144 150 162 161 144 146 127 125 134 129 129 133 130 128 127 127 128 131 133 131 134 134 141 145 145 143 142 142 139 138 136 134 132 131 129 125 119 113 112 112 109 107 101 91
154 151 147 146 153 145 148 130 133 129 131 135 134 131 127 126 128 130 127 125 133 140 142 143 142 144 146 146 144 141 137 134 132 129 128 126 126 122 116 110 105 100 96 92
151 153 145 144 143 144 142 139 137 139 139 136 138 134 135 132 134 129 125 124 137 141 142 142 145 146 147 149 143 140 138 136 132 132 131 129 124 120 114 111 104 97 93 92
152 148 153 153 140 148 148 147 127 136 147 142 143 142 141 138 137 136 127 122 136 144 146 147 149 149 151 144 143 144 142 138 134 132 128 125 119 116 116 113 107 101 97 94
164 151 155 156 149 144 155 156 149 150 141 151 156 157 157 153 150 146 145 129 143 150 147 146 148 147 148 148 150 146 141 137 135 133 130 125 122 122 123 121 112 107 102 99
163 163 156 162 158 152 155 157 149 150 144 144 148 153 157 158 149 149 141 146 153 153 148 152 154 155 154 152 148 144 140 139 138 135 133 130 128 128 125 117 111 108 106 100
165 163 149 161 156 150 154 154 151 139 143 138 138 147 152 148 144 149 152 153 156 157 155 156 160 158 153 153 150 147 145 146 145 142 139 135 134 131 124 120 113 109 106 101
170 172 153 159 146 154 161 151 144 148 147 152 147 152 161 152 156 159 158 161 159 159 159 159 161 159 160 159 157 156 154 151 149 147 143 139 138 136 131 125 120 114 106 99
Wind_Speed_850mb
32 38 40 40 40 40 30 34 26 35 26 27 30 32 14 19 21 43 29 17 38 52 52 45 76 75 75 77 83 93 101 103 100 91 96 89 83 76 73 59 46 44 41 38
24 32 29 30 21 29 13 30 36 40 35 17 30 24 11 16 21 31 38 47 42 37 42 61 66 71 74 82 88 98 108 106 101 104 93 77 77 74 62 53 50 43 41 40
11 18 29 6 14 20 26 24 13 10 7 12 17 21 12 30 40 43 42 39 19 43 67 69 76 76 83 98 107 112 112 111 111 100 91 84 77 67 62 59 54 52 48 40
9 17 6 9 20 19 28 35 23 24 27 25 30 44 50 26 31 45 15 26 38 75 84 88 99 103 93 94 108 118 120 114 111 89 89 82 73 67 69 65 58 51 46 39
5 6 13 7 13 25 14 17 6 31 35 30 48 43 15 22 19 12 26 16 62 94 113 115 130 126 107 105 112 118 113 93 84 100 93 81 77 77 71 66 60 51 45 39
5 8 7 8 33 48 21 10 32 44 41 36 29 10 9 29 18 15 17 17 59 109 126 129 125 106 106 102 99 87 83 92 95 95 84 80 82 77 72 64 59 54 49 41
8 7 3 16 39 55 5 13 59 66 65 50 10 13 33 27 17 14 5 69 100 120 128 125 125 130 121 113 97 103 99 93 84 80 83 84 77 71 67 62 58 52 47 43
6 7 9 31 13 8 20 58 65 64 51 35 6 18 18 22 28 38 80 115 108 111 125 128 126 133 128 114 106 98 95 91 86 83 79 77 79 73 63 57 54 53 50 48
8 10 9 23 22 40 48 55 41 50 41 19 6 8 12 29 55 55 78 104 104 111 126 104 112 119 113 106 104 105 100 98 94 90 85 79 75 68 61 57 57 56 51 52
8 1 9 33 26 46 53 61 42 34 29 18 19 26 61 66 72 65 82 107 111 115 115 105 101 102 99 102 104 103 104 99 95 94 88 79 70 60 55 54 56 55 53 52
15 19 28 7 47 55 54 45 32 23 27 24 38 50 76 79 76 61 85 112 105 111 113 110 116 114 108 102 101 104 99 99 95 88 77 73 66 56 54 53 46 53 51 45
7 16 13 30 46 45 48 38 24 27 37 39 56 64 84 91 82 77 85 113 102 109 112 108 111 107 102 100 99 104 109 101 93 89 86 77 72 75 63 59 52 47 45 40
11 34 43 47 39 29 26 29 17 27 41 52 58 73 90 88 80 91 86 87 102 105 104 100 101 102 98 97 98 102 103 98 93 86 80 79 75 76 80 64 54 50 43 37
19 25 18 16 21 26 14 13 12 27 48 61 70 77 91 86 81 94 91 100 101 101 98 96 97 99 96 95 95 97 96 90 84 80 78 76 74 74 72 70 66 57 43 36
14 11 13 21 13 12 16 22 20 40 53 65 67 77 87 84 85 92 93 97 97 97 96 91 91 92 88 87 87 87 85 84 84 85 82 79 75 71 67 63 59 54 50 45
9 9 6 3 8 12 12 29 27 45 58 63 68 76 82 87 88 76 89 92 98 97 96 95 92 88 84 86 89 90 89 87 85 84 79 75 73 71 66 59 54 51 47 42
5 7 9 8 6 12 15 19 39 49 58 67 74 77 81 84 86 87 84 88 91 92 92 93 97 98 99 98 96 92 87 81 76 76 73 70 65 67 62 55 53 51 48 43
4 5 6 8 15 23 21 29 40 43 58 70 72 78 82 83 88 85 87 91 98 98 95 95 95 91 86 82 82 81 78 73 69 68 67 68 66 59 54 52 52 52 50 44
7 10 11 13 16 32 33 38 49 49 58 63 71 75 79 81 82 84 87 88 86 84 80 77 79 82 82 80 80 78 75 77 80 79 76 71 65 58 54 51 49 44 43 45
14 12 14 15 17 30 36 42 52 58 63 69 74 78 80 76 78 83 81 84 82 87 80 79 82 80 76 71 72 75 78 78 78 76 71 64 57 52 48 50 47 46 43 41
19 16 22 23 32 35 36 43 56 61 60 69 75 76 78 78 75 76 81 80 69 75 83 77 75 76 72 66 68 74 72 70 68 64 59 55 51 49 48 45 46 45 45 40
23 33 30 37 37 47 51 52 56 60 64 66 67 74 77 75 75 80 73 69 68 63 60 60 62 61 59 62 65 63 63 62 61 57 55 52 50 47 44 43 43 41 39 36
34 36 34 39 40 42 52 58 57 62 68 67 70 71 76 76 72 75 72 58 52 54 54 54 55 56 61 64 61 58 56 57 54 49 46 43 42 40 39 39 39 35 33 30
33 40 41 42 46 45 49 50 47 47 45 53 60 60 65 65 56 66 69 62 52 52 52 54 54 57 54 53 56 59 56 50 46 44 42 42 42 39 38 39 38 36 31 27
33 44 42 46 48 46 50 56 53 44 46 47 46 43 47 51 64 62 69 44 48 48 52 46 42 39 48 53 53 51 48 46 44 41 39 37 38 38 39 37 36 33 30 27
40 49 44 48 47 49 46 45 57 54 47 46 38 45 50 63 61 55 53 46 52 57 48 44 43 45 45 44 45 44 44 43 39 38 39 39 36 35 36 34 32 32 31 30
41 45 45 51 40 41 43 50 49 43 41 45 42 41 57 77 57 47 54 53 61 53 45 41 42 41 39 39 40 41 39 38 38 40 38 36 34 34 34 33 33 33 33 33
Wind_Direction_850mb
254 269 275 274 279 289 252 252 255 270 272 278 286 280 251 254 276 294 271 273 253 283 268 225 210 191 183 189 192 182 177 174 172 166 156 154 154 152 151 148 147 148 140 131
274 263 271 288 287 299 299 252 253 258 268 340 287 283 232 296 285 298 331 318 312 286 194 192 192 178 176 176 173 179 177 168 162 152 151 154 155 154 143 146 149 145 139 136
272 331 307 186 359 327 317 305 328 304 359 328 327 325 321 318 333 316 313 309 273 167 163 169 168 162 156 150 149 154 152 153 151 148 149 154 154 144 145 146 144 140 136 133
290 310 345 157 36 335 311 286 360 357 345 332 321 310 305 292 294 282 271 264 164 126 132 142 136 133 141 153 139 147 134 135 140 137 151 152 148 145 143 139 139 135 131 129
275 271 272 164 18 334 338 302 1 343 328 312 310 318 293 256 267 229 198 175 133 128 128 127 124 134 128 122 127 127 131 131 142 154 152 147 147 143 140 137 134 133 129 131
293 270 276 16 335 322 302 258 0 334 316 300 305 325 260 330 274 214 217 178 133 124 126 125 129 130 124 125 113 119 132 145 153 153 147 148 145 140 136 133 131 129 128 123
285 278 252 6 338 320 3 322 324 314 305 305 244 238 301 304 297 171 38 142 128 124 127 130 133 139 137 138 135 148 149 151 154 148 147 147 139 135 135 132 129 126 123 117
318 280 295 14 355 24 303 300 302 304 315 331 318 264 281 239 122 129 133 133 129 128 129 134 136 137 138 142 146 145 149 148 144 143 141 139 136 133 128 125 124 123 118 110
206 243 317 328 309 323 320 311 320 314 331 353 35 358 94 92 106 129 126 127 127 127 132 136 141 142 138 139 146 147 145 144 144 140 137 136 132 127 123 124 121 116 113 107
318 298 317 315 328 335 332 323 328 328 346 25 58 83 100 102 104 114 119 124 129 131 129 128 141 147 144 145 149 146 143 140 138 138 138 135 126 120 120 121 116 113 112 111
265 289 325 177 329 336 333 345 344 2 37 79 85 86 100 101 103 112 112 121 118 115 118 125 141 143 150 151 150 144 139 137 139 136 135 131 126 119 115 110 112 114 112 102
274 325 285 288 319 335 336 346 352 32 66 101 105 100 113 105 111 106 107 122 118 130 134 138 143 141 144 149 148 143 140 142 142 143 142 139 130 121 114 114 114 105 104 97
270 299 296 299 313 337 335 348 25 65 81 94 102 106 113 120 117 118 113 122 130 137 138 139 139 141 145 147 147 145 142 142 140 142 142 136 131 125 119 110 104 100 97 96
304 309 304 326 322 334 12 40 59 90 97 102 113 104 109 117 118 123 125 133 137 139 138 141 142 142 146 147 146 143 142 143 142 139 135 132 127 123 120 116 112 105 102 105
327 321 312 314 328 350 15 93 81 87 99 102 111 107 117 115 113 118 127 134 138 138 138 142 141 141 145 146 144 142 141 138 134 131 128 125 123 120 117 117 114 107 102 93
343 340 4 159 353 34 45 89 103 94 107 112 116 113 111 116 116 115 129 135 136 136 138 139 140 142 145 145 142 140 137 135 133 131 129 127 126 126 125 121 112 101 92 91
347 350 112 118 82 70 85 96 116 111 115 118 116 120 118 116 117 119 120 127 130 133 137 138 139 142 142 141 140 138 137 137 134 133 132 129 128 129 128 116 107 102 100 93
247 187 199 171 134 116 115 117 125 124 118 124 124 122 120 117 119 124 126 129 130 131 135 137 138 139 140 143 140 137 134 135 135 134 133 132 129 124 120 114 112 105 98 94
135 145 161 174 143 128 124 122 127 135 125 127 127 122 122 123 127 127 128 131 134 134 138 140 142 141 143 145 143 140 138 135 132 128 126 125 125 121 114 110 109 107 104 95
144 150 162 161 144 146 127 125 134 129 129 133 130 128 127 127 128 131 133 131 134 134 141 145 145 143 142 142 139 138 136 134 132 131 129 125 119 113 112 112 109 107 101 91
154 151 147 146 153 145 148 130 133 129 131 135 134 131 127 126 128 130 127 125 133 140 142 143 142 144 146 146 144 141 137 134 132 129 128 126 126 122 116 110 105 100 96 92
151 153 145 144 143 144 142 139 137 139 139 136 138 134 135 132 134 129 125 124 137 141 142 142 145 146 147 149 143 140 138 136 132 132 131 129 124 120 114 111 104 97 93 92
152 148 153 153 140 148 148 147 127 136 147 142 143 142 141 138 137 136 127 122 136 144 146 147 149 149 151 144 143 144 142 138 134 132 128 125 119 116 116 113 107 101 97 94
164 151 155 156 149 144 155 156 149 150 141 151 156 157 157 153 150 146 145 129 143 150 147 146 148 147 148 148 150 146 141 137 135 133 130 125 122 122 123 121 112 107 102 99
163 163 156 162 158 152 155 157 149 150 144 144 148 153 157 158 149 149 141 146 153 153 148 152 154 155 154 152 148 144 140 139 138 135 133 130 128 128 125 117 111 108 106 100
165 163 149 161 156 150 154 154 151 139 143 138 138 147 152 148 144 149 152 153 156 157 155 156 160 158 153 153 150 147 145 146 145 142 139 135 134 131 124 120 113 109 106 101
170 172 153 159 146 154 161 151 144 148 147 152 147 152 161 152 156 159 158 161 159 159 159 159 161 159 160 159 157 156 154 151 149 147 143 139 138 136 131 125 120 114 106 99